Showing default

HONGYUN 1, 43871

Orbit data source: Space-Track

HONGYUN 1, 43871 is a payload satellite owned by CASIC (CN) in SSO that was launched on Fri, 21 Dec 2018 UTC via a CHANG ZHENG 11 launch vehicle from the Jiuquan Satellite Launch Center, China (JSC). Payload-class satellites include a variety of spacecraft equipped with specific instruments for various scientific and technological missions. These include communications satellites like Starlink; space stations such as the ISS; scientific satellites like the Hubble; Earth observation satellites from companies like Planet Labs, Umbra, and HawkEye 360; GPS; miniature CubeSats for education and research; and military/defense satellites.

Loading next visibility...
Identifier
43871, 2018-108A
Orbit
SSO
Country
Flag of CNCN / PRC
Related business
Manufacturer
CASIC
Mission
Operational Civil Communications
Bus & Motor
HONGYUN, Unknown motor
Mass
~250 kg wet, ~250 kg dry
Launch date (UTC)
2018-12-21 (7 years ago)
Launch vehicle
CHANG ZHENG 11
Launch site
Jiuquan Satellite Launch Center, China (JSC)
Object type
Payload
Rocket body
Debris
Shape & HBR
Box + 2 Pan, 2.0 m
Radar Cross Section
1.356 m², Large (>1 m²)

Expand to show TLE details & history
Last TLE update: 5 hours ago

TLE from 5 hours ago
0 HONGYUN 1
1 43871U 18108A   26123.52295660  .00000131  00000-0  27112-3 0  9991
2 43871  99.7689 146.1410 0012378 126.6104 233.6171 13.50808965363056
Epoch: 2026-05-03T12:33Z
TLE epoch observation values (Epoch: 2026-05-03T12:33:03.450Z)
Latitude
0.00001°
Longitude
96.45134°
Altitude
1,077.544 km
Speed
7.311 km/s
True Right ascension
09h 44m 33s
True Declination
0° 00' 00"
Sunlit
Object was in daylight at epoch
Visualization orbit readout
Latitude
Unknown
Longitude
Unknown
Altitude
Unknown
Speed
Unknown
Apparent Right ascension
Unknown
Apparent Declination
Unknown
Sunlit
N/A
Visualization observer readout
Local Sidereal Time
01:36:35
Azimuth
Unknown
Elevation
Unknown
Doppler factor
Unknown
Orbital elements
Apogee altitude
1,075.803 km
Perigee altitude
1,057.372 km
Semi-major axis
7,444.725 km
Eccentricity
0.00124
Inclination
99.7689°
RAAN
146.141°
Arg. of periapsis
126.6104°
True anomaly
233.50301°
Mean anomaly
233.6171°
Eccentric anomaly
233.56005°
Mean motion
3.37886 °/min
Orbital period
106.54 mins
BSTAR
0.00027112
Loading maneuver chart data...
Computing Atmospheric mass density...
Loading historical data...
Loading historical data...
Loading historical data...
Loading historical data...
Loading historical data...
Loading historical data...
Loading historical data...
Other satellites on launch #108 in the year 2018 (2018-12-21 UTC)

Documentation

Showing up to 5 results
|